Regional Weather Roundup
Issued by NWS

Home | Current Version | Previous Version | Text Only | Print | Product List | Glossary Off
Versions: 1 2 3 4 5 6 7 8 9 10 11 12 13 14 15 16 17 18 19 20 21 22 23 24 25 26 27 28 29 30 31 32 33 34 35 36 37 38 39 40 41 42 43 44 45 46 47 48 49 50

000
ASUS44 KMEG 300810
RWRTN
TENNESSEE HOURLY STATE WEATHER ROUNDUP
NATIONAL WEATHER SERVICE MEMPHIS TN
300 AM CDT SAT AUG 30 2014

TNZ002-004-019-021-049-052-054-088>092-300900-
WEST TENNESSEE

CITY           SKY/WX    TMP DP  RH WIND       PRES   REMARKS
MEMPHIS INTL   PTCLDY    78  70  76 S6        29.98F
NWS MEMPHIS      N/A     76 N/A N/A MISG        N/A
JACKSON        MOCLDY    73  66  78 CALM      30.00S
DYERSBURG      MOCLDY    73  63  68 CALM      30.00S
UNION CITY     MOCLDY    73  70  88 CALM      29.98S
PARIS          PTCLDY    70  64  83 CALM      30.01F
HUNTINGDON     MOCLDY    70  66  86 CALM      30.01S
LEXINGTON      CLEAR     68  66  94 CALM      30.01S
SAVANNAH       CLEAR     72  66  83 S5        30.03S
$$

TNZ008-025-027-028-033-062-065-066-300900-
NORTH MIDDLE TENNESSEE

CITY           SKY/WX    TMP DP  RH WIND       PRES   REMARKS
NASHVILLE      MOCLDY    71  65  81 S5        30.05S
DICKSON        PTCLDY    75  63  64 S7        30.03F
PORTLAND       CLEAR     70  63  78 S6        30.04F
CLARKSVILLE    PTCLDY    72  65  78 SE5       30.01F
LEBANON        PTCLDY    70  64  81 CALM      30.04F
SMYRNA         PTCLDY    69  66  90 CALM      30.06S
COOKEVILLE     CLEAR     64  64 100 CALM      30.09S
GALLATIN       PTCLDY    70  67  90 CALM      30.06F
CROSSVILLE     CLEAR     69  59  70 CALM      30.15F
$$

TNZ061-075-076-078-094-096-097-300900-
SOUTH MIDDLE TENNESSEE

CITY           SKY/WX    TMP DP  RH WIND       PRES   REMARKS
LEWISBURG      PTCLDY    68  64  86 CALM      30.06S
FAYETTEVILLE   CLEAR     72  61  68 S3        30.08S
TULLAHOMA      CLEAR     64  63  94 CALM      30.10S
WINCHESTER     CLEAR     70  64  83 CALM      30.09S
MCMINNVILLE    CLEAR     66  66 100 CALM      30.09S
COLUMBIA         N/A     70  70 100 CALM      30.04S
SHELBYVILLE    CLEAR     70  66  88 E3        30.08S
$$

TNZ017-018-042-046-047-300900-
NORTHEAST TENNESSEE

CITY           SKY/WX    TMP DP  RH WIND       PRES   REMARKS
TRI CITIES     PTCLDY    67  65  93 CALM      30.18S FOG
ELIZABETHTON   SUNNY     66  64  94 CALM      30.20S
$$

TNZ012-013-036-069-073-074-300900-
CENTRAL EAST TENNESSEE

CITY           SKY/WX    TMP DP  RH WIND       PRES   REMARKS
KNOXVILLE      MOCLDY    69  66  90 CALM      30.11S
OAK RIDGE      MOCLDY    71  68  90 CALM      30.13F
GATLINBURG     SUNNY     66  63  88 CALM      30.12S
MORRISTOWN     SUNNY     72  66  83 E6        30.15S
$$

TNZ083-085-099-300900-
SOUTHEAST TENNESSEE

CITY           SKY/WX    TMP DP  RH WIND       PRES   REMARKS
CHATTANOOGA    MOCLDY    71  65  81 CALM      30.10S
$$

SKY/WX REPORTED AS FAIR MEANS FEW OR NO CLOUDS BELOW
12 THOUSAND FEET.



USA.gov is the U.S. government's official web portal to all federal, state and local government web resources and services.